Flood From: 19-02-2018 16:00 Until: 20-02-2018 16:00 warning for: Flood Level: Yellow info button

Although rather usual in this region, locally or potentially dangerous phenomena are expected. (such as local winds, summer thunderstorms, rising streams or high waves) Be aware and pay attention to the latest weather updates, especially if you carry out activities exposed to weather or close to a stream or shoreline. 


Meteo18 Weather Cam more information Meteo18 Weather Cam


Thunder radar more information blitzortung!


Rain radar more information rain snow radar


Visit our other weather sites:

Template documentation
and downloads

And another site



Weather Underground History page Text

Daily Summary for December 12, 2017 Units:  Metric    English   Both
« Previous Day
Next Day »
Daily Weekly Monthly Yearly Custom
  High: Low: Average:
Temperature: -17.8 °C -18 °C -16.4 °C
Dew Point: -17.8 °C -18.4 °C -17.3 °C
Humidity: Humidity % 78 % 88 %
Wind Speed: 0 km/h 0 km/h 6.9 km/h
Wind Gust: 0 km/h - -
Wind:- - WSW
Pressure: 0 hPa 33856.6 hPa -
Precipitation: 0 mm    
Historical Graphs
 
 
Tabular Data for December 12, 2017
Time Temperature Dew Point Pressure Wind Wind Speed Wind Gust Humidity Rainfall Rate (Hourly)
-17.8 °C -17.8 °C 0 hPa Calm     Humidity % 0 mm
00:02 -15.9 °C -17 °C 33856.6 hPa West 2.6 km/h 38.8 km/h 87 % 0 mm
00:07 -15.9 °C -16.9 °C 33856.6 hPa Calm   38.8 km/h 88 % 0 mm
00:12 -15.9 °C -16.9 °C 33856.6 hPa West 2.6 km/h 23.3 km/h 88 % 0 mm
00:17 -15.9 °C -16.9 °C 33866.8 hPa WNW 5.1 km/h 23.3 km/h 88 % 0 mm
00:22 -15.9 °C -16.8 °C 33866.8 hPa WNW 7.7 km/h 18.2 km/h 89 % 0 mm
00:32 -15.8 °C -16.8 °C 33880.3 hPa West 7.7 km/h 20.8 km/h 88 % 0 mm
00:37 -15.7 °C -16.8 °C 33880.3 hPa WNW 12.9 km/h 20.8 km/h 87 % 0 mm
00:47 -15.7 °C -16.8 °C 33890.5 hPa NW 23.3 km/h 33.6 km/h 86 % 0 mm
00:52 -15.7 °C -16.8 °C 33890.5 hPa WSW 12.9 km/h 33.6 km/h 86 % 0 mm
00:57 -15.7 °C -16.8 °C 33890.5 hPa WNW 15.6 km/h 33.6 km/h 86 % 0 mm
01:02 -15.7 °C -16.8 °C 33890.5 hPa West 18.2 km/h 33.6 km/h 86 % 0 mm
01:12 -15.7 °C -16.9 °C 33900.6 hPa NW 18.2 km/h 33.6 km/h 86 % 0 mm
01:17 -15.7 °C -16.9 °C 33900.6 hPa WNW 20.8 km/h 31.1 km/h 86 % 0 mm
01:22 -15.7 °C -16.9 °C 33914.2 hPa West 7.7 km/h 31.1 km/h 86 % 0 mm
01:27 -15.8 °C -16.9 °C 33914.2 hPa West 7.7 km/h 31.1 km/h 87 % 0 mm
01:32 -15.7 °C -16.9 °C 33914.2 hPa Calm   33.6 km/h 86 % 0 mm
01:42 -15.8 °C -16.9 °C 33924.3 hPa WNW 2.6 km/h 33.6 km/h 87 % 0 mm
01:47 -15.9 °C -17 °C 33924.3 hPa WNW 5.1 km/h 23.3 km/h 87 % 0 mm
01:52 -15.9 °C -17 °C 33924.3 hPa WNW 5.1 km/h 25.9 km/h 87 % 0 mm
01:57 -15.9 °C -17.1 °C 33924.3 hPa West 5.1 km/h 25.9 km/h 87 % 0 mm
02:02 -15.9 °C -17.1 °C 33937.9 hPa West 2.6 km/h 25.9 km/h 87 % 0 mm
02:07 -15.9 °C -17.1 °C 33937.9 hPa NW 7.7 km/h 15.6 km/h 87 % 0 mm
02:17 -16 °C -17.1 °C 33948 hPa WNW 5.1 km/h 15.6 km/h 87 % 0 mm
02:27 -16.1 °C -17.1 °C 33948 hPa WNW 2.6 km/h 12.9 km/h 88 % 0 mm
02:32 -16.1 °C -17.1 °C 33958.2 hPa West 7.7 km/h 12.9 km/h 88 % 0 mm
02:42 -16.2 °C -17.2 °C 33958.2 hPa West 2.6 km/h 12.9 km/h 88 % 0 mm
02:52 -16.2 °C -17.1 °C 33971.7 hPa WNW 5.1 km/h 10.3 km/h 89 % 0 mm
02:57 -16.2 °C -17.1 °C 33971.7 hPa West 2.6 km/h 10.3 km/h 89 % 0 mm
03:02 -16.2 °C -17.1 °C 33981.9 hPa Calm   10.3 km/h 89 % 0 mm
03:07 -16.2 °C -17.1 °C 33992.1 hPa Calm   7.7 km/h 89 % 0 mm
03:12 -16.2 °C -17.1 °C 33992.1 hPa Calm   7.7 km/h 89 % 0 mm
03:17 -16.2 °C -17.1 °C 33992.1 hPa Calm   5.1 km/h 89 % 0 mm
03:22 -16.2 °C -17.1 °C 34005.6 hPa SW 2.6 km/h 5.1 km/h 89 % 0 mm
03:27 -16.2 °C -17.1 °C 34005.6 hPa WSW 2.6 km/h 10.3 km/h 89 % 0 mm
03:32 -16.2 °C -17.1 °C 34015.8 hPa WSW 5.1 km/h 10.3 km/h 89 % 0 mm
03:37 -16.2 °C -17.1 °C 34015.8 hPa WSW 2.6 km/h 7.7 km/h 89 % 0 mm
03:42 -16.2 °C -17.1 °C 34029.3 hPa WSW 2.6 km/h 10.3 km/h 89 % 0 mm
03:52 -16.1 °C -17 °C 34029.3 hPa WSW 2.6 km/h 12.9 km/h 89 % 0 mm
03:57 -16.1 °C -17 °C 34039.5 hPa WSW 5.1 km/h 12.9 km/h 89 % 0 mm
04:07 -16.2 °C -17.1 °C 34039.5 hPa West 5.1 km/h 15.6 km/h 89 % 0 mm
04:12 -16.2 °C -17.1 °C 34049.6 hPa WSW 7.7 km/h 12.9 km/h 89 % 0 mm
04:17 -16.2 °C -17.1 °C 34049.6 hPa West 12.9 km/h 12.9 km/h 90 % 0 mm
04:22 -16.2 °C -17.1 °C 34049.6 hPa WSW 12.9 km/h 12.9 km/h 89 % 0 mm
04:27 -16.2 °C -17.1 °C 34049.6 hPa WNW 10.3 km/h 15.6 km/h 89 % 0 mm
04:32 -16.3 °C -17.2 °C 34063.2 hPa WNW 5.1 km/h 15.6 km/h 89 % 0 mm
04:42 -16.3 °C -17.2 °C 34073.3 hPa WNW 7.7 km/h 15.6 km/h 89 % 0 mm
04:47 -16.3 °C -17.2 °C 34073.3 hPa WNW 5.1 km/h 15.6 km/h 89 % 0 mm
04:52 -16.4 °C -17.2 °C 34073.3 hPa West 5.1 km/h 15.6 km/h 90 % 0 mm
04:57 -16.4 °C -17.2 °C 34073.3 hPa WNW 10.3 km/h 15.6 km/h 90 % 0 mm
05:02 -16.4 °C -17.2 °C 34086.9 hPa West 7.7 km/h 12.9 km/h 90 % 0 mm
05:12 -16.5 °C -17.3 °C 34097 hPa West 2.6 km/h 12.9 km/h 90 % 0 mm
05:17 -16.5 °C -17.3 °C 34097 hPa West 2.6 km/h 12.9 km/h 90 % 0 mm
05:22 -16.5 °C -17.3 °C 34097 hPa WNW 10.3 km/h 12.9 km/h 90 % 0 mm
05:32 -16.6 °C -17.3 °C 34107.2 hPa West 2.6 km/h 12.9 km/h 91 % 0 mm
05:37 -16.6 °C -17.3 °C 34107.2 hPa West 12.9 km/h 12.9 km/h 91 % 0 mm
05:42 -16.6 °C -17.3 °C 34107.2 hPa WNW 12.9 km/h 15.6 km/h 91 % 0 mm
05:47 -16.6 °C -17.3 °C 34120.7 hPa WNW 10.3 km/h 18.2 km/h 91 % 0 mm
05:52 -16.7 °C -17.4 °C 34130.9 hPa NW 5.1 km/h 18.2 km/h 91 % 0 mm
05:57 -16.7 °C -17.4 °C 34120.7 hPa WNW 7.7 km/h 18.2 km/h 91 % 0 mm
06:02 -16.7 °C -17.4 °C 34130.9 hPa West 7.7 km/h 18.2 km/h 91 % 0 mm
06:12 -16.8 °C -17.5 °C 34144.4 hPa WSW 10.3 km/h 18.2 km/h 91 % 0 mm
06:22 -16.8 °C -17.5 °C 34154.6 hPa WNW 15.6 km/h 18.2 km/h 92 % 0 mm
06:27 -16.8 °C -17.5 °C 34154.6 hPa West 2.6 km/h 18.2 km/h 92 % 0 mm
06:32 -16.9 °C -17.6 °C 34164.7 hPa West 12.9 km/h 18.2 km/h 92 % 0 mm
06:37 -16.9 °C -17.6 °C 34178.3 hPa WNW 10.3 km/h 18.2 km/h 92 % 0 mm
06:42 -16.9 °C -17.6 °C 34178.3 hPa WNW 5.1 km/h 23.3 km/h 92 % 0 mm
06:47 -17 °C -17.7 °C 34178.3 hPa NW 2.6 km/h 23.3 km/h 92 % 0 mm
06:52 -17 °C -17.7 °C 34188.4 hPa NW 7.7 km/h 23.3 km/h 92 % 0 mm
06:57 -17.1 °C -17.7 °C 34188.4 hPa West 2.6 km/h 23.3 km/h 92 % 0 mm
07:02 -17.1 °C -17.7 °C 34198.6 hPa WSW 2.6 km/h 18.2 km/h 92 % 0 mm
07:12 -17.1 °C -17.7 °C 34198.6 hPa Calm   12.9 km/h 93 % 0 mm
07:17 -17.1 °C -17.7 °C 34198.6 hPa WNW 2.6 km/h 12.9 km/h 93 % 0 mm
07:22 -17.1 °C -17.7 °C 34212.1 hPa WNW 2.6 km/h 12.9 km/h 93 % 0 mm
07:27 -17.1 °C -17.7 °C 34212.1 hPa Calm   7.7 km/h 93 % 0 mm
07:32 -17.2 °C -17.7 °C 34212.1 hPa West 2.6 km/h 7.7 km/h 93 % 0 mm
07:42 -17.3 °C -17.8 °C 34222.3 hPa SW 2.6 km/h 5.1 km/h 93 % 0 mm
07:47 -17.3 °C -17.9 °C 34235.8 hPa SW 2.6 km/h 5.1 km/h 93 % 0 mm
07:52 -17.3 °C -17.9 °C 34235.8 hPa SW 2.6 km/h 5.1 km/h 93 % 0 mm
07:57 -17.3 °C -17.9 °C 34235.8 hPa Calm   5.1 km/h 93 % 0 mm
08:02 -17.4 °C -17.9 °C 34235.8 hPa West 2.6 km/h 5.1 km/h 93 % 0 mm
08:07 -17.4 °C -17.9 °C 34235.8 hPa WSW 5.1 km/h 5.1 km/h 93 % 0 mm
08:12 -17.4 °C -17.9 °C 34246 hPa West 5.1 km/h 5.1 km/h 93 % 0 mm
08:17 -17.4 °C -17.9 °C 34246 hPa WSW 2.6 km/h 7.7 km/h 94 % 0 mm
08:27 -17.5 °C -18 °C 34246 hPa Calm   7.7 km/h 94 % 0 mm
08:32 -17.6 °C -18.1 °C 34246 hPa Calm   7.7 km/h 94 % 0 mm
08:37 -17.6 °C -18.1 °C 34246 hPa Calm   7.7 km/h 94 % 0 mm
08:42 -17.7 °C -18.2 °C 34246 hPa Calm   5.1 km/h 94 % 0 mm
08:47 -17.7 °C -18.2 °C 34256.2 hPa WSW 2.6 km/h 5.1 km/h 94 % 0 mm
08:57 -17.8 °C -18.2 °C 34256.2 hPa Calm   2.6 km/h 94 % 0 mm
09:02 -17.7 °C -18.1 °C 34269.7 hPa Calm   2.6 km/h 95 % 0 mm
09:07 -17.7 °C -18.1 °C 34269.7 hPa SW 2.6 km/h 2.6 km/h 95 % 0 mm
09:12 -17.7 °C -18.1 °C 34269.7 hPa Calm   7.7 km/h 95 % 0 mm
09:17 -17.6 °C -18 °C 34269.7 hPa SSW 2.6 km/h 7.7 km/h 95 % 0 mm
09:27 -17.7 °C -18.2 °C 34279.9 hPa Calm   7.7 km/h 94 % 0 mm
09:32 -17.8 °C -18.2 °C 34279.9 hPa Calm   5.1 km/h 94 % 0 mm
09:37 -17.8 °C -18.2 °C 34293.4 hPa South 2.6 km/h 7.7 km/h 95 % 0 mm
09:42 -17.8 °C -18.2 °C 34293.4 hPa South 7.7 km/h 7.7 km/h 95 % 0 mm
09:47 -17.9 °C -18.3 °C 34293.4 hPa SW 5.1 km/h 10.3 km/h 95 % 0 mm
09:57 -17.9 °C -18.3 °C 34293.4 hPa SW 2.6 km/h 10.3 km/h 95 % 0 mm
10:02 -17.9 °C -18.3 °C 34303.6 hPa Calm   10.3 km/h 95 % 0 mm
10:07 -17.9 °C -18.3 °C 34313.7 hPa Calm   7.7 km/h 95 % 0 mm
10:12 -17.9 °C -18.3 °C 34313.7 hPa SW 5.1 km/h 7.7 km/h 95 % 0 mm
10:17 -17.9 °C -18.3 °C 34313.7 hPa South 5.1 km/h 7.7 km/h 95 % 0 mm
10:27 -18 °C -18.4 °C 34327.3 hPa SW 5.1 km/h 10.3 km/h 95 % 0 mm
10:32 -18 °C -18.3 °C 34327.3 hPa SW 7.7 km/h 10.3 km/h 96 % 0 mm
10:37 -18 °C -18.3 °C 34327.3 hPa SSW 5.1 km/h 10.3 km/h 96 % 0 mm
10:42 -17.9 °C -18.3 °C 34337.4 hPa SSW 7.7 km/h 12.9 km/h 96 % 0 mm
10:52 -17.9 °C -18.2 °C 34347.6 hPa South 5.1 km/h 10.3 km/h 96 % 0 mm
10:57 -17.9 °C -18.2 °C 34347.6 hPa South 5.1 km/h 12.9 km/h 96 % 0 mm
11:02 -17.8 °C -18.2 °C 34347.6 hPa South 7.7 km/h 12.9 km/h 96 % 0 mm
11:17 -17.8 °C -18.2 °C 34347.6 hPa SSW 7.7 km/h 15.6 km/h 96 % 0 mm
11:27 -17.8 °C -18.1 °C 34361.1 hPa SSW 7.7 km/h 20.8 km/h 96 % 0 mm
11:32 -17.7 °C -18.1 °C 34361.1 hPa SSW 7.7 km/h 20.8 km/h 96 % 0 mm
11:37 -17.8 °C -18.1 °C 34361.1 hPa SSW 7.7 km/h 20.8 km/h 96 % 0 mm
11:42 -17.7 °C -18.1 °C 34361.1 hPa SW 15.6 km/h 20.8 km/h 96 % 0 mm
11:47 -17.6 °C -17.8 °C 34347.6 hPa SSW 12.9 km/h 18.2 km/h 97 % 0 mm
11:52 -17.6 °C -17.8 °C 34347.6 hPa South 10.3 km/h 18.2 km/h 97 % 0 mm
12:02 -17.4 °C -17.7 °C 34347.6 hPa SW 20.8 km/h 20.8 km/h 97 % 0 mm
12:12 -17.2 °C -17.4 °C 34347.6 hPa SSW 15.6 km/h 23.3 km/h 97 % 0 mm
12:17 -17.2 °C -17.4 °C 34347.6 hPa SW 18.2 km/h 20.8 km/h 97 % 0 mm
12:22 -17.3 °C -17.6 °C 34347.6 hPa WSW 15.6 km/h 25.9 km/h 97 % 0 mm
12:27 -17.3 °C -17.5 °C 34347.6 hPa SW 10.3 km/h 25.9 km/h 97 % 0 mm
12:32 -17.1 °C -17.3 °C 34347.6 hPa SW 12.9 km/h 31.1 km/h 97 % 0 mm
12:37 -17.1 °C -17.3 °C 34361.1 hPa SSW 18.2 km/h 31.1 km/h 97 % 0 mm
12:42 -17 °C -17.2 °C 34361.1 hPa SW 15.6 km/h 23.3 km/h 97 % 0 mm
12:57 -16.6 °C -16.8 °C 34361.1 hPa SW 10.3 km/h 23.3 km/h 97 % 0 mm
13:02 -16.5 °C -16.7 °C 34361.1 hPa SW 7.7 km/h 23.3 km/h 97 % 0 mm
13:12 -16.4 °C -16.7 °C 34361.1 hPa WSW 18.2 km/h 18.2 km/h 96 % 0 mm
13:17 -16.3 °C -16.7 °C 34361.1 hPa West 15.6 km/h 23.3 km/h 95 % 0 mm
13:22 -16.3 °C -16.8 °C 34371.3 hPa WSW 18.2 km/h 23.3 km/h 93 % 0 mm
13:32 -16.1 °C -16.8 °C 34371.3 hPa SW 15.6 km/h 20.8 km/h 91 % 0 mm
13:37 -15.9 °C -16.8 °C 34361.1 hPa South 7.7 km/h 25.9 km/h 90 % 0 mm
13:47 -15.7 °C -16.8 °C 34361.1 hPa SSW 10.3 km/h 31.1 km/h 87 % 0 mm
13:52 -15.6 °C -16.6 °C 34361.1 hPa SW 10.3 km/h 31.1 km/h 88 % 0 mm
13:57 -15.6 °C -16.7 °C 34371.3 hPa WSW 12.9 km/h 31.1 km/h 86 % 0 mm
14:02 -15.5 °C -16.7 °C 34361.1 hPa WSW 10.3 km/h 25.9 km/h 86 % 0 mm
14:12 -15.3 °C -16.5 °C 34371.3 hPa SW 7.7 km/h 25.9 km/h 86 % 0 mm
14:22 -15.3 °C -16.7 °C 34371.3 hPa SW 18.2 km/h 25.9 km/h 84 % 0 mm
14:32 -15.2 °C -16.8 °C 34371.3 hPa WSW 7.7 km/h 36.2 km/h 82 % 0 mm
14:37 -15.2 °C -16.7 °C 34371.3 hPa SW 15.6 km/h 36.2 km/h 82 % 0 mm
14:42 -15.1 °C -16.7 °C 34371.3 hPa WSW 12.9 km/h 25.9 km/h 81 % 0 mm
14:47 -15.1 °C -16.8 °C 34371.3 hPa SW 15.6 km/h 25.9 km/h 80 % 0 mm
14:52 -15.1 °C -16.9 °C 34371.3 hPa SW 12.9 km/h 31.1 km/h 80 % 0 mm
15:02 -15.2 °C -17 °C 34371.3 hPa SW 10.3 km/h 28.5 km/h 80 % 0 mm
15:12 -15.2 °C -17 °C 34384.8 hPa SW 10.3 km/h 28.5 km/h 80 % 0 mm
15:17 -15.2 °C -16.9 °C 34384.8 hPa SW 10.3 km/h 20.8 km/h 81 % 0 mm
15:22 -15.2 °C -17 °C 34384.8 hPa SW 10.3 km/h 18.2 km/h 80 % 0 mm
15:32 -15.2 °C -16.9 °C 34395 hPa WSW 18.2 km/h 20.8 km/h 80 % 0 mm
15:37 -15.2 °C -16.9 °C 34395 hPa SW 7.7 km/h 20.8 km/h 80 % 0 mm
15:42 -15.2 °C -16.9 °C 34395 hPa WSW 2.6 km/h 20.8 km/h 80 % 0 mm
15:47 -15.2 °C -16.9 °C 34395 hPa SW 7.7 km/h 20.8 km/h 80 % 0 mm
15:52 -15.1 °C -16.9 °C 34395 hPa WSW 5.1 km/h 15.6 km/h 79 % 0 mm
15:57 -15.1 °C -16.9 °C 34395 hPa SSW 2.6 km/h 18.2 km/h 80 % 0 mm
16:02 -15.1 °C -16.9 °C 34395 hPa SW 18.2 km/h 18.2 km/h 80 % 0 mm
16:07 -15.1 °C -16.8 °C 34405.1 hPa SW 18.2 km/h 20.8 km/h 81 % 0 mm
16:17 -15.2 °C -16.8 °C 34405.1 hPa SW 12.9 km/h 25.9 km/h 81 % 0 mm
16:27 -15.2 °C -17 °C 34405.1 hPa SW 20.8 km/h 23.3 km/h 79 % 0 mm
16:32 -15.1 °C -16.9 °C 34418.7 hPa SSW 20.8 km/h 31.1 km/h 79 % 0 mm
16:37 -15.2 °C -17 °C 34418.7 hPa SW 12.9 km/h 31.1 km/h 79 % 0 mm
16:42 -15.2 °C -17.1 °C 34418.7 hPa WSW 12.9 km/h 31.1 km/h 78 % 0 mm
16:47 -15.2 °C -17 °C 34428.8 hPa SW 7.7 km/h 31.1 km/h 79 % 0 mm
16:52 -15.2 °C -17 °C 34428.8 hPa SW 7.7 km/h 31.1 km/h 80 % 0 mm
16:57 -15.3 °C -17 °C 34428.8 hPa SW 7.7 km/h 20.8 km/h 81 % 0 mm
17:02 -15.4 °C -16.9 °C 34428.8 hPa SW 7.7 km/h 15.6 km/h 82 % 0 mm
17:07 -15.5 °C -16.9 °C 34428.8 hPa SW 7.7 km/h 12.9 km/h 83 % 0 mm
17:12 -15.6 °C -16.9 °C 34428.8 hPa SW 10.3 km/h 12.9 km/h 84 % 0 mm
17:17 -15.6 °C -16.8 °C 34442.4 hPa SSW 7.7 km/h 15.6 km/h 85 % 0 mm
17:22 -15.6 °C -16.9 °C 34442.4 hPa SSW 7.7 km/h 15.6 km/h 85 % 0 mm
17:27 -15.5 °C -16.9 °C 34442.4 hPa SW 2.6 km/h 12.9 km/h 84 % 0 mm
17:32 -15.4 °C -16.9 °C 34442.4 hPa SW 5.1 km/h 12.9 km/h 83 % 0 mm
17:37 -15.4 °C -16.9 °C 34442.4 hPa SSW 5.1 km/h 12.9 km/h 83 % 0 mm
17:42 -15.4 °C -16.9 °C 34442.4 hPa SSW 5.1 km/h 12.9 km/h 83 % 0 mm
17:47 -15.5 °C -16.9 °C 34442.4 hPa SSW 5.1 km/h 10.3 km/h 84 % 0 mm
17:52 -15.6 °C -16.8 °C 34442.4 hPa SSW 2.6 km/h 7.7 km/h 86 % 0 mm
18:02 -15.7 °C -16.8 °C 34452.6 hPa SSW 5.1 km/h 7.7 km/h 87 % 0 mm
18:07 -15.7 °C -16.8 °C 34452.6 hPa SW 5.1 km/h 12.9 km/h 87 % 0 mm
18:12 -15.7 °C -16.8 °C 34452.6 hPa SSW 7.7 km/h 12.9 km/h 87 % 0 mm
18:17 -15.7 °C -16.8 °C 34452.6 hPa SW 10.3 km/h 12.9 km/h 87 % 0 mm
18:27 -15.7 °C -16.9 °C 34462.7 hPa SW 7.7 km/h 15.6 km/h 86 % 0 mm
18:32 -15.8 °C -16.9 °C 34452.6 hPa SSW 5.1 km/h 15.6 km/h 86 % 0 mm
18:37 -15.8 °C -17 °C 34452.6 hPa SSW 7.7 km/h 15.6 km/h 86 % 0 mm
18:47 -15.9 °C -17.1 °C 34462.7 hPa South 7.7 km/h 12.9 km/h 86 % 0 mm
18:52 -16 °C -17.2 °C 34462.7 hPa SW 5.1 km/h 10.3 km/h 86 % 0 mm
18:57 -16.1 °C -17.3 °C 34462.7 hPa SW 5.1 km/h 10.3 km/h 85 % 0 mm
19:02 -16.1 °C -17.3 °C 34462.7 hPa SW 7.7 km/h 10.3 km/h 85 % 0 mm
19:07 -16.2 °C -17.4 °C 34462.7 hPa SW 7.7 km/h 10.3 km/h 85 % 0 mm
19:12 -16.2 °C -17.4 °C 34462.7 hPa SSW 5.1 km/h 10.3 km/h 85 % 0 mm
19:22 -16.2 °C -17.5 °C 34462.7 hPa SW 5.1 km/h 7.7 km/h 85 % 0 mm
19:32 -16.2 °C -17.5 °C 34462.7 hPa SSW 2.6 km/h 7.7 km/h 85 % 0 mm
19:37 -16.3 °C -17.6 °C 34462.7 hPa SSW 5.1 km/h 7.7 km/h 85 % 0 mm
19:42 -16.3 °C -17.6 °C 34462.7 hPa SW 5.1 km/h 7.7 km/h 85 % 0 mm
19:47 -16.3 °C -17.6 °C 34476.3 hPa SSW 5.1 km/h 7.7 km/h 85 % 0 mm
19:52 -16.3 °C -17.5 °C 34476.3 hPa SSW 2.6 km/h 7.7 km/h 86 % 0 mm
19:57 -16.3 °C -17.5 °C 34476.3 hPa SSW 5.1 km/h 7.7 km/h 86 % 0 mm
20:02 -16.3 °C -17.4 °C 34476.3 hPa SSW 5.1 km/h 10.3 km/h 86 % 0 mm
20:07 -16.3 °C -17.5 °C 34476.3 hPa SSW 7.7 km/h 10.3 km/h 86 % 0 mm
20:17 -16.3 °C -17.3 °C 34486.4 hPa SSW 5.1 km/h 10.3 km/h 87 % 0 mm
20:22 -16.3 °C -17.3 °C 34486.4 hPa SW 5.1 km/h 10.3 km/h 87 % 0 mm
20:32 -16.2 °C -17.4 °C 34486.4 hPa SSW 2.6 km/h 7.7 km/h 86 % 0 mm
20:37 -16.2 °C -17.4 °C 34486.4 hPa SW 5.1 km/h 7.7 km/h 86 % 0 mm
20:42 -16.2 °C -17.4 °C 34486.4 hPa SSW 5.1 km/h 7.7 km/h 86 % 0 mm
20:47 -16.2 °C -17.4 °C 34486.4 hPa SSW 5.1 km/h 7.7 km/h 86 % 0 mm
20:52 -16.3 °C -17.4 °C 34486.4 hPa SW 7.7 km/h 7.7 km/h 86 % 0 mm
20:57 -16.2 °C -17.4 °C 34496.6 hPa SW 5.1 km/h 10.3 km/h 86 % 0 mm
21:07 -16.2 °C -17.3 °C 34496.6 hPa West 5.1 km/h 10.3 km/h 86 % 0 mm
21:12 -16.2 °C -17.4 °C 34496.6 hPa WSW 2.6 km/h 10.3 km/h 85 % 0 mm
21:17 -16.2 °C -17.4 °C 34496.6 hPa SW 2.6 km/h 10.3 km/h 85 % 0 mm
21:22 -16.1 °C -17.3 °C 34496.6 hPa SW 2.6 km/h 7.7 km/h 85 % 0 mm
21:32 -16.2 °C -17.4 °C 34496.6 hPa SSW 2.6 km/h 7.7 km/h 85 % 0 mm
21:37 -16.2 °C -17.5 °C 34496.6 hPa SSW 2.6 km/h 7.7 km/h 85 % 0 mm
21:42 -16.3 °C -17.4 °C 34496.6 hPa SSW 5.1 km/h 7.7 km/h 87 % 0 mm
21:52 -16.4 °C -17.5 °C 34496.6 hPa SSW 5.1 km/h 7.7 km/h 87 % 0 mm
22:02 -16.5 °C -17.4 °C 34496.6 hPa SSW 10.3 km/h 12.9 km/h 89 % 0 mm
22:12 -16.4 °C -17.3 °C 34496.6 hPa SSW 10.3 km/h 15.6 km/h 89 % 0 mm
22:17 -16.3 °C -17.3 °C 34496.6 hPa SW 7.7 km/h 15.6 km/h 88 % 0 mm
22:22 -16.2 °C -17.2 °C 34496.6 hPa SW 5.1 km/h 15.6 km/h 87 % 0 mm
22:27 -16.1 °C -17.2 °C 34496.6 hPa SW 10.3 km/h 15.6 km/h 86 % 0 mm
22:42 -16.1 °C -17.2 °C 34496.6 hPa SSW 7.7 km/h 15.6 km/h 86 % 0 mm
22:47 -16.1 °C -17.3 °C 34496.6 hPa SSW 5.1 km/h 15.6 km/h 86 % 0 mm
22:52 -16.2 °C -17.2 °C 34496.6 hPa SSW 5.1 km/h 10.3 km/h 87 % 0 mm
23:02 -16.3 °C -17.3 °C 34496.6 hPa SSW 7.7 km/h 7.7 km/h 88 % 0 mm
23:07 -16.3 °C -17.3 °C 34510.1 hPa SW 7.7 km/h 7.7 km/h 88 % 0 mm
23:12 -16.2 °C -17.2 °C 34510.1 hPa SSW 5.1 km/h 10.3 km/h 88 % 0 mm
23:17 -16.2 °C -17.2 °C 34510.1 hPa SSW 5.1 km/h 10.3 km/h 87 % 0 mm
23:22 -16.2 °C -17.2 °C 34510.1 hPa SSW 2.6 km/h 10.3 km/h 87 % 0 mm
23:27 -16.2 °C -17.2 °C 34510.1 hPa Calm   10.3 km/h 87 % 0 mm
23:32 -16.2 °C -17.2 °C 34510.1 hPa South 2.6 km/h 10.3 km/h 87 % 0 mm
23:37 -16.2 °C -17.3 °C 34510.1 hPa Calm   7.7 km/h 87 % 0 mm
23:42 -16.2 °C -17.2 °C 34496.6 hPa SE 5.1 km/h 5.1 km/h 88 % 0 mm
23:52 -16.3 °C -17.3 °C 34510.1 hPa SSE 2.6 km/h 7.7 km/h 88 % 0 mm
23:57 -16.3 °C -17.3 °C 34496.6 hPa SSE 2.6 km/h 7.7 km/h 88 % 0 mm
Meteo18
Compliments of Weather Underground - 4 mb

Script developed by  Jim McMurry - jmcmurry@mwt.net Adapted for the template by  Wim van der Kuil - Leuven-Template.eu

You find our weather info also at:

European Weather Network

Weather Underground

Equipment we use:

Weather-station
Davis Vue

Weather-program
Meteobridge

Weather-server
Raspberry PI 2 B+

Provider
1 and 1

Davis Vue

Meteobridge

Raspberry PI 2 B+

1 and 1